User: anonymous   Login
Location: Ash Swamp
(41.5170°N, 74.6157°W)
Time: 00:41:57
(UTC+00:00)
Language:

Gblst 52 Del rocket - Orbit

View from above orbital plane
View from above orbital plane
View from above satellite
View from above satellite

Ground track
Ground track

The orbit data is extracted from the following two-line orbital elements,

1 25774U 99031E   20271.25487531 -.00000146 +00000-0 -18984-4 0  9991
2 25774 051.5291 192.4690 0374921 286.8079 237.0992 13.46458739047819
Epoch (UTC): 27 September 2020 06:07:01
Eccentricity: 0.0374921
inclination: 51.5291°
perigee height: 805 km
apogee height: 1365 km
right ascension of ascending node: 192.4690°
argument of perigee: 286.8079°
revolutions per day: 13.46458739
mean anomaly at epoch: 237.0992°
orbit number at epoch: 4781

The dashed part of the orbit path shows where the satellite is in the earth's shadow,  

DLR